Main page
METAR-TAF:

METAR-TAF

Airports :

Ephrata Municipal Airport

Ephrata, Washington, United States

latitude: 47-18-27N, longitude: 119-30-57W, elevation: 1276 ft

Current weather observation

The report was made 58 minutes ago, at 21:53 UTC
Wind 5 mph from variable directions
Temperature 81°F
Humidity 15%
Pressure 29.93 in. Hg
Visibility: 10 miles
Clear sky

METAR: KEPH 132153Z AUTO VRB04KT 10SM CLR 27/M02 A2993 RMK AO2 SLP129 T02671017

Time: 15:51 (22:51 UTC)


TAF: missing

Weather observations and forecasts of more than 4000 airports (METAR and TAF reports).

The available stations are represented by yellow and red dots on the map.

Hover mouse over dot to see the name of the station.

Then click to see weather observations and forecasts.

To change the map : click on the green buttons with a black cross to zoom in, on the green button with a dash to zoom out, or on the green arrows for adjacent maps.


METAR-TAF: